Time,TemperatureF,DewpointF,PressureIn,WindDirection,WindDirectionDegrees,WindSpeedMPH,WindSpeedGustMPH,Humidity,HourlyPrecipIn,Conditions,Clouds,dailyrainin,SoftwareType,DateUTC
2013-05-07 00:03:00,63.0,43.0,30.01,East,90,9.0,19.0,48,-99.99,,,0.00,,2013-05-07 04:03:00,
2013-05-07 01:42:00,57.0,42.0,30.02,East,90,9.0,18.0,58,-99.99,,,0.00,,2013-05-07 05:42:00,
2013-05-07 01:52:00,57.0,42.0,30.02,East,90,9.0,18.0,58,-99.99,,,0.00,,2013-05-07 05:52:00,
2013-05-07 02:02:00,57.0,42.0,30.02,East,90,9.0,18.0,58,-99.99,,,0.00,,2013-05-07 06:02:00,
2013-05-07 02:42:00,54.0,44.0,30.02,NE,45,4.0,10.0,68,-99.99,,,0.00,,2013-05-07 06:42:00,
2013-05-07 02:52:00,54.0,44.0,30.02,NE,45,4.0,10.0,68,-99.99,,,0.00,,2013-05-07 06:52:00,
2013-05-07 03:02:00,54.0,44.0,30.02,NE,45,4.0,10.0,68,-99.99,,,0.00,,2013-05-07 07:02:00,
2013-05-07 03:42:00,52.0,43.0,30.02,East,90,8.0,13.0,72,-99.99,,,0.00,,2013-05-07 07:42:00,
2013-05-07 03:53:00,52.0,43.0,30.02,East,90,8.0,13.0,72,-99.99,,,0.00,,2013-05-07 07:53:00,
2013-05-07 04:02:00,52.0,43.0,30.02,East,90,8.0,13.0,72,-99.99,,,0.00,,2013-05-07 08:02:00,
2013-05-07 04:42:00,51.0,46.0,30.01,NNE,22,1.0,13.0,83,-99.99,,,0.00,,2013-05-07 08:42:00,
2013-05-07 04:52:00,51.0,46.0,30.01,NNE,22,1.0,13.0,83,-99.99,,,0.00,,2013-05-07 08:52:00,
2013-05-07 05:01:00,51.0,46.0,30.01,NNE,22,1.0,13.0,83,-99.99,,,0.00,,2013-05-07 09:01:00,
2013-05-07 05:43:00,49.0,46.0,30.02,NE,45,6.0,10.0,91,-99.99,,,0.00,,2013-05-07 09:43:00,
2013-05-07 05:52:00,49.0,46.0,30.02,NE,45,6.0,10.0,91,-99.99,,,0.00,,2013-05-07 09:52:00,
2013-05-07 06:03:00,49.0,46.0,30.02,NE,45,6.0,10.0,91,-99.99,,,0.00,,2013-05-07 10:03:00,
2013-05-07 06:42:00,49.0,48.0,30.03,ENE,67,2.0,8.0,96,-99.99,,,0.00,,2013-05-07 10:42:00,
2013-05-07 06:52:00,49.0,48.0,30.03,ENE,67,2.0,8.0,96,-99.99,,,0.00,,2013-05-07 10:52:00,
2013-05-07 07:02:00,49.0,48.0,30.03,ENE,67,2.0,8.0,96,-99.99,,,0.00,,2013-05-07 11:02:00,
2013-05-07 07:42:00,53.0,48.0,30.03,ENE,67,3.0,10.0,83,-99.99,,,0.00,,2013-05-07 11:42:00,
2013-05-07 07:52:00,53.0,48.0,30.03,ENE,67,3.0,10.0,83,-99.99,,,0.00,,2013-05-07 11:52:00,
2013-05-07 08:02:00,53.0,48.0,30.03,ENE,67,3.0,10.0,83,-99.99,,,0.00,,2013-05-07 12:02:00,
2013-05-07 08:42:00,56.0,49.0,30.04,ENE,67,5.0,14.0,76,-99.99,,,-99.99,,2013-05-07 12:42:00,
2013-05-07 08:52:00,56.0,49.0,30.04,ENE,67,5.0,14.0,76,-99.99,,,-99.99,,2013-05-07 12:52:00,
2013-05-07 09:02:00,56.0,49.0,30.04,ENE,67,5.0,14.0,76,-99.99,,,-99.99,,2013-05-07 13:02:00,
2013-05-07 09:42:00,61.0,47.0,30.03,ENE,67,3.0,15.0,59,-99.99,,,-99.99,,2013-05-07 13:42:00,
2013-05-07 09:52:00,61.0,47.0,30.03,ENE,67,3.0,15.0,59,-99.99,,,-99.99,,2013-05-07 13:52:00,
2013-05-07 10:02:00,61.0,47.0,30.03,ENE,67,3.0,15.0,59,-99.99,,,-99.99,,2013-05-07 14:02:00,
2013-05-07 10:42:00,70.0,40.0,30.01,North,360,7.0,11.0,34,-99.99,,,0.00,,2013-05-07 14:42:00,
2013-05-07 10:52:00,70.0,40.0,30.01,North,360,7.0,11.0,34,-99.99,,,0.00,,2013-05-07 14:52:00,
2013-05-07 11:01:00,70.0,40.0,30.01,North,360,7.0,11.0,34,-99.99,,,0.00,,2013-05-07 15:01:00,
2013-05-07 11:43:00,72.0,44.0,29.98,NE,45,10.0,13.0,36,-99.99,,,0.00,,2013-05-07 15:43:00,
2013-05-07 11:53:00,72.0,44.0,29.98,NE,45,10.0,13.0,36,-99.99,,,0.00,,2013-05-07 15:53:00,
2013-05-07 12:03:00,72.0,44.0,29.98,NE,45,10.0,13.0,36,-99.99,,,0.00,,2013-05-07 16:03:00,
2013-05-07 14:42:00,79.0,36.0,29.93,South,180,9.0,33.0,21,-99.99,,,0.00,,2013-05-07 18:42:00,
2013-05-07 14:52:00,79.0,36.0,29.93,South,180,9.0,33.0,21,-99.99,,,0.00,,2013-05-07 18:52:00,
2013-05-07 15:02:00,79.0,36.0,29.93,South,180,9.0,33.0,21,-99.99,,,0.00,,2013-05-07 19:02:00,
2013-05-07 16:42:00,80.0,34.0,29.91,SW,225,9.0,35.0,19,-99.99,,,0.00,,2013-05-07 20:42:00,
2013-05-07 16:52:00,80.0,34.0,29.91,SW,225,9.0,35.0,19,-99.99,,,0.00,,2013-05-07 20:52:00,
2013-05-07 17:02:00,80.0,34.0,29.91,SW,225,9.0,35.0,19,-99.99,,,0.00,,2013-05-07 21:02:00,
2013-05-07 17:43:00,81.0,33.0,29.92,SSW,202,19.0,21.0,18,-99.99,,,0.00,,2013-05-07 21:43:00,
2013-05-07 17:53:00,81.0,33.0,29.92,SSW,202,19.0,21.0,18,-99.99,,,0.00,,2013-05-07 21:53:00,
2013-05-07 18:02:00,81.0,33.0,29.92,SSW,202,19.0,21.0,18,-99.99,,,0.00,,2013-05-07 22:02:00,
2013-05-07 18:42:00,79.0,37.0,29.94,WSW,247,9.0,23.0,22,-99.99,,,0.00,,2013-05-07 22:42:00,
2013-05-07 18:52:00,79.0,37.0,29.94,WSW,247,9.0,23.0,22,-99.99,,,0.00,,2013-05-07 22:52:00,
2013-05-07 19:02:00,79.0,37.0,29.94,WSW,247,9.0,23.0,22,-99.99,,,0.00,,2013-05-07 23:02:00,
2013-05-07 19:42:00,76.0,39.0,29.98,West,270,5.0,18.0,26,-99.99,,,0.00,,2013-05-07 23:42:00,
2013-05-07 19:52:00,76.0,39.0,29.98,West,270,5.0,18.0,26,-99.99,,,0.00,,2013-05-07 23:52:00,
2013-05-07 20:02:00,76.0,39.0,29.98,West,270,5.0,18.0,26,-99.99,,,0.00,,2013-05-08 00:02:00,
2013-05-07 20:42:00,71.0,40.0,30.01,WSW,247,7.0,9.0,33,-99.99,,,-99.99,,2013-05-08 00:42:00,
2013-05-07 20:52:00,71.0,40.0,30.01,WSW,247,7.0,9.0,33,-99.99,,,-99.99,,2013-05-08 00:52:00,
2013-05-07 21:02:00,71.0,40.0,30.01,WSW,247,7.0,9.0,33,-99.99,,,-99.99,,2013-05-08 01:02:00,
2013-05-07 21:42:00,65.0,40.0,30.05,SW,225,0.0,9.0,40,-99.99,,,0.00,,2013-05-08 01:42:00,
2013-05-07 21:52:00,65.0,40.0,30.05,SW,225,0.0,9.0,40,-99.99,,,0.00,,2013-05-08 01:52:00,
2013-05-07 22:02:00,65.0,40.0,30.05,SW,225,0.0,9.0,40,-99.99,,,0.00,,2013-05-08 02:02:00,
2013-05-07 22:42:00,59.0,43.0,30.07,SW,225,0.0,3.0,55,-99.99,,,0.00,,2013-05-08 02:42:00,
2013-05-07 22:52:00,59.0,43.0,30.07,SW,225,0.0,3.0,55,-99.99,,,0.00,,2013-05-08 02:52:00,
2013-05-07 23:02:00,59.0,43.0,30.07,SW,225,0.0,3.0,55,-99.99,,,0.00,,2013-05-08 03:02:00,
2013-05-07 23:43:00,53.0,52.0,30.11,ENE,67,0.0,4.0,98,-99.99,,,0.00,,2013-05-08 03:43:00,
2013-05-07 23:52:00,53.0,52.0,30.11,ENE,67,0.0,4.0,98,-99.99,,,0.00,,2013-05-08 03:52:00,